WB7CYS Weather Reports


Display with metric or nautical units.
time (UTC)temp
F
wind
direction
speed
MPH
gust
MPH
rain 1hr
in
rain 24hr
in
rain mn
in
humidity
%
barometer
mb
20260503223006 79 13 4.0 13.0 0.00 0.00 0.00 30 1008.1
20260503221503 79 15 5.0 13.0 0.00 0.00 0.00 33 1008.2
20260503220100 79 54 4.0 10.0 0.00 0.00 0.00 36 1008.4
20260503220001 79 26 4.0 10.0 0.00 0.00 0.00 34 1008.5
20260503214601 79 22 5.0 9.0 0.00 0.00 0.00 29 1008.6
20260503213055 79 358 5.0 9.0 0.00 0.00 0.00 28 1008.7
20260503211553 79 43 6.0 10.0 0.00 0.00 0.00 32 1008.9
20260503210051 78 310 7.0 9.0 0.00 0.00 0.00 34 1009.0
20260503204548 78 85 5.0 14.0 0.00 0.00 0.00 41 1009.3
20260503203102 78 91 2.0 9.0 0.00 0.00 0.00 37 1009.3
20260503201541 77 263 0.0 4.0 0.00 0.00 0.00 40 1009.6
20260503200038 76 273 0.0 5.0 0.00 0.00 0.00 40 1009.8
20260503194542 76 236 1.0 5.0 0.00 0.00 0.00 42 1010.0
20260503193037 75 137 1.0 6.0 0.00 0.00 0.00 41 1010.2
20260503191531 74 239 4.0 5.0 0.00 0.00 0.00 42 1010.4
20260503190038 73 238 3.0 5.0 0.00 0.00 0.00 42 1010.5
20260503184529 74 263 1.0 5.0 0.00 0.00 0.00 44 1010.7
20260503183026 72 231 3.0 5.0 0.00 0.00 0.00 43 1010.8
20260503181524 72 156 2.0 6.0 0.00 0.00 0.00 43 1011.1
20260503180021 71 195 3.0 7.0 0.00 0.00 0.00 46 1011.2
20260503174518 70 275 2.0 6.0 0.00 0.00 0.00 46 1011.4
20260503173016 69 271 2.0 6.0 0.00 0.00 0.00 47 1011.4
20260503171512 68 255 5.0 7.0 0.00 0.00 0.00 49 1011.4
20260503100106 59 81 6.0 10.0 0.00 0.00 0.00 56 1010.7
20260503081536 61 131 2.0 8.0 0.00 0.00 0.00 54 1010.4
20260503071524 63 72 12.0 14.0 0.00 0.00 0.00 51 1009.9
20260503054515 61 101 6.0 9.0 0.00 0.00 0.00 63 1009.8
20260503053018 62 95 4.0 6.0 0.00 0.00 0.00 63 1009.7
20260503051512 61 82 2.0 3.0 0.00 0.00 0.00 65 1009.7
20260503050007 62 101 1.0 6.0 0.00 0.00 0.00 62 1009.6
20260503044508 64 107 1.0 5.0 0.00 0.00 0.00 60 1009.4
20260503043006 64 105 5.0 7.0 0.00 0.00 0.00 61 1009.2
20260503041506 63 96 4.0 7.0 0.00 0.00 0.00 63 1009.1
20260503040004 65 91 4.0 5.0 0.00 0.00 0.00 62 1008.8
20260503034505 66 108 2.0 4.0 0.00 0.00 0.00 65 1008.6
20260503033002 67 100 3.0 4.0 0.00 0.00 0.00 62 1008.4
20260503031501 69 119 0.0 6.0 0.00 0.00 0.00 62 1008.1
20260503030100 69 77 4.0 6.0 0.00 0.00 0.00 60 1008.0
20260503024600 72 83 3.0 5.0 0.00 0.00 0.00 59 1008.0
20260503023110 73 70 3.0 6.0 0.00 0.00 0.00 54 1007.9
20260503021600 74 68 4.0 9.0 0.00 0.00 0.00 53 1007.9
20260503021501 74 76 5.0 9.0 0.00 0.00 0.00 52 1007.9
20260503020057 76 59 2.0 7.0 0.00 0.00 0.00 51 1007.9
20260503014559 78 359 2.0 7.0 0.00 0.00 0.00 44 1007.9
20260503013055 78 30 0.0 8.0 0.00 0.00 0.00 45 1008.0
20260503011555 78 29 1.0 7.0 0.00 0.00 0.00 46 1008.0
20260503010052 78 349 1.0 8.0 0.00 0.00 0.00 44 1008.1
20260503004550 78 356 4.0 9.0 0.00 0.00 0.00 43 1008.2
20260503003048 78 4 2.0 8.0 0.00 0.00 0.00 42 1008.3
20260503001545 77 333 2.0 7.0 0.00 0.00 0.00 47 1008.3
20260503000040 77 32 2.0 6.0 0.00 0.00 0.00 47 1008.5
20260502234548 76 87 3.0 8.0 0.00 0.00 0.00 48 1008.6
20260502233035 76 51 1.0 7.0 0.00 0.00 0.00 48 1008.7
20260502231533 76 6 2.0 8.0 0.00 0.00 0.00 48 1008.8
20260502230031 76 54 4.0 10.0 0.00 0.00 0.00 47 1009.0
20260502224529 76 18 5.0 11.0 0.00 0.00 0.00 50 1009.2